FW8813 Weather Reports


time (UTC)temp
F
wind
direction
speed
knots
gust
knots
rain 1hr
in
rain 24hr
in
rain mn
in
humidity
%
barometer
mb
20260508102034 37 0 0.0 2.6 0.00 0.10 0.00 96 1016.5
20260508101544 37 307 0.9 2.6 0.00 0.10 0.00 96 1016.5
20260508101035 37 309 0.0 0.9 0.00 0.10 0.00 96 1016.5
20260508100537 37 319 0.0 4.3 0.00 0.10 0.00 96 1016.5
20260508100049 37 267 0.9 4.3 0.00 0.10 0.00 97 1016.3
20260508095534 37 11 0.0 1.7 0.00 0.11 0.00 97 1016.3
20260508095034 37 277 0.9 1.7 0.00 0.11 0.00 96 1016.3
20260508094548 37 0 0.0 2.6 0.00 0.11 0.00 97 1016.3
20260508094033 37 0 0.0 2.6 0.00 0.11 0.00 97 1016.2
20260508093535 37 282 0.9 2.6 0.00 0.11 0.00 97 1016.1
20260508093048 37 0 0.0 2.6 0.00 0.11 0.00 97 1016.2
20260508092535 37 0 0.9 2.6 0.00 0.11 0.00 97 1016.2
20260508092034 38 225 0.0 3.5 0.00 0.11 0.00 97 1016.0
20260508091558 37 3 0.0 3.5 0.00 0.11 0.00 97 1016.2
20260508091033 37 294 0.0 1.7 0.00 0.11 0.00 96 1016.0
20260508090536 37 90 0.0 0.9 0.00 0.11 0.00 96 1016.0
20260508090104 37 0 0.0 1.7 0.00 0.11 0.00 96 1016.0
20260508085534 37 0 0.0 1.7 0.00 0.11 0.00 96 1015.8
20260508085034 38 0 0.0 1.7 0.00 0.11 0.00 97 1015.8
20260508084548 37 260 0.0 1.7 0.00 0.11 0.00 96 1015.6
20260508084034 37 111 0.0 0.9 0.00 0.11 0.00 96 1015.5
20260508083534 38 146 0.0 0.9 0.00 0.11 0.00 96 1015.6
20260508083043 38 0 0.0 1.7 0.00 0.11 0.00 96 1015.5
20260508082534 38 0 0.0 1.7 0.00 0.11 0.00 96 1015.6
20260508082034 38 221 0.0 1.7 0.00 0.11 0.00 96 1015.4
20260508081549 39 143 0.0 2.6 0.00 0.11 0.00 97 1015.4
20260508081037 39 0 0.9 2.6 0.00 0.11 0.00 97 1015.2
20260508080534 38 271 0.9 1.7 0.00 0.11 0.00 96 1015.1
20260508080047 39 0 0.0 0.0 0.00 0.11 0.00 96 1015.3
20260508075534 39 0 0.0 0.0 0.00 0.12 0.00 97 1015.2
20260508075034 39 0 0.0 2.6 0.00 0.12 0.00 96 1015.2
20260508074546 39 0 0.0 2.6 0.00 0.12 0.00 96 1015.1
20260508074033 39 283 0.0 2.6 0.00 0.12 0.00 96 1015.1
20260508073538 39 0 0.0 0.0 0.00 0.12 0.00 96 1015.1
20260508073043 40 0 0.0 0.0 0.00 0.12 0.00 97 1014.9
20260508072535 39 0 0.0 0.0 0.00 0.12 0.00 97 1015.0
20260508072038 39 0 0.0 0.0 0.00 0.12 0.00 96 1015.0
20260508071552 39 0 0.0 0.0 0.00 0.12 0.00 96 1015.1
20260508071036 39 0 0.0 0.0 0.00 0.12 0.00 96 1015.0
20260508070534 39 0 0.0 0.0 0.00 0.12 0.00 96 1015.0
20260508070044 40 0 0.0 0.0 0.00 0.12 0.00 96 1015.1
20260508065533 40 0 0.0 0.0 0.00 0.12 0.00 96 1015.1
20260508065034 40 0 0.0 0.0 0.00 0.12 0.00 96 1015.0
20260508064549 40 0 0.0 0.0 0.00 0.12 0.00 96 1015.0
20260508064034 40 0 0.0 0.0 0.00 0.12 0.00 96 1015.0
20260508063534 40 0 0.0 0.0 0.00 0.12 0.00 96 1014.9
20260508063046 40 0 0.0 0.0 0.00 0.12 0.00 95 1014.9
20260508062533 40 0 0.0 0.0 0.00 0.12 0.00 95 1015.0
20260508062033 41 0 0.0 0.0 0.00 0.12 0.00 96 1015.1
20260508061550 41 0 0.0 0.0 0.00 0.12 0.00 96 1015.0
20260508061034 41 0 0.0 0.0 0.00 0.12 0.00 95 1015.1
20260508060535 42 0 0.0 0.0 0.00 0.12 0.00 96 1015.1
20260508060045 42 0 0.0 0.0 0.00 0.12 0.00 96 1015.1
20260508055536 42 0 0.0 0.0 0.00 0.12 0.00 96 1015.0
20260508055034 42 0 0.0 0.0 0.00 0.12 0.00 95 1015.1
20260508054547 42 0 0.0 0.0 0.00 0.12 0.00 96 1015.1
20260508054035 42 0 0.0 0.0 0.00 0.12 0.00 96 1015.1
20260508053537 42 0 0.0 0.0 0.00 0.12 0.00 96 1015.3
20260508053113 42 0 0.0 0.0 0.00 0.12 0.00 95 1015.1
20260508052537 42 0 0.0 0.0 0.00 0.12 0.00 95 1014.9
20260508052035 43 0 0.0 0.0 0.00 0.12 0.00 95 1014.9
20260508051545 43 0 0.0 0.0 0.00 0.12 0.00 96 1014.9
20260508051037 43 0 0.0 0.0 0.00 0.12 0.00 95 1014.9
20260508050534 43 0 0.0 0.0 0.00 0.12 0.00 95 1014.8
20260508050047 43 0 0.0 0.9 0.00 0.12 0.00 95 1014.9
20260508045534 44 0 0.0 2.6 0.00 0.12 0.00 95 1014.6
20260508045034 44 0 0.0 2.6 0.00 0.12 0.00 95 1014.7
20260508044555 43 0 0.0 3.5 0.00 0.12 0.00 95 1014.6
20260508044034 44 41 0.0 3.5 0.00 0.12 0.00 95 1014.5
20260508043533 44 263 0.9 3.5 0.00 0.12 0.00 94 1014.3
20260508043054 44 0 0.0 1.7 0.00 0.12 0.00 95 1014.1
20260508042534 44 0 0.9 2.6 0.00 0.12 0.00 95 1014.1
20260508042035 44 0 0.0 2.6 0.00 0.12 0.00 95 1014.1
20260508041610 44 240 0.0 1.7 0.00 0.12 0.00 95 1014.0
20260508041034 44 0 0.0 2.6 0.00 0.12 0.00 95 1014.1
20260508040534 44 0 0.9 2.6 0.00 0.12 0.00 94 1014.1
20260508040107 44 0 0.0 2.6 0.00 0.12 0.00 95 1014.1
20260508035537 44 0 0.0 2.6 0.00 0.17 0.12 94 1014.0
20260508035037 44 0 0.9 2.6 0.00 0.17 0.12 94 1013.9
20260508034547 45 267 0.9 1.7 0.00 0.17 0.12 94 1014.0
20260508034037 45 264 0.0 1.7 0.00 0.17 0.12 94 1013.9
20260508033533 45 0 0.9 1.7 0.00 0.17 0.12 94 1013.9
20260508033048 45 0 0.0 1.7 0.00 0.17 0.12 94 1013.9
20260508032534 45 0 0.0 1.7 0.00 0.17 0.12 94 1013.8
20260508032035 45 0 0.0 1.7 0.00 0.17 0.12 94 1013.8
20260508031545 44 84 0.0 1.7 0.00 0.17 0.12 93 1013.9
20260508031033 45 0 0.0 0.9 0.00 0.17 0.12 93 1013.9
20260508030534 45 0 0.0 1.7 0.00 0.17 0.12 93 1013.9
20260508030044 46 0 0.0 2.6 0.00 0.17 0.12 93 1013.8
20260508025538 46 75 0.0 2.6 0.00 0.19 0.12 93 1013.8
20260508025034 46 0 0.0 0.0 0.00 0.19 0.12 93 1013.7
20260508024546 47 0 0.0 0.0 0.00 0.19 0.12 93 1013.4
20260508024039 47 0 0.0 0.0 0.00 0.19 0.12 93 1013.3
20260508023534 47 0 0.0 0.0 0.00 0.19 0.12 92 1013.3
20260508023048 47 0 0.0 0.0 0.00 0.19 0.12 91 1013.3
20260508022536 47 0 0.0 0.0 0.00 0.19 0.12 91 1013.1
20260508022035 48 0 0.0 0.0 0.00 0.19 0.12 91 1013.1
20260508021544 48 0 0.0 0.0 0.00 0.19 0.12 90 1013.1
20260508021033 49 0 0.0 0.0 0.00 0.19 0.12 90 1013.1
20260508020535 49 0 0.0 0.0 0.00 0.19 0.12 90 1013.1
20260508020050 49 0 0.0 0.9 0.00 0.19 0.12 89 1013.0
20260508015534 50 0 0.0 1.7 0.00 0.19 0.12 88 1012.9
20260508015033 50 0 0.0 2.6 0.00 0.19 0.12 88 1012.8
20260508014546 50 0 0.9 2.6 0.00 0.19 0.12 86 1012.8
20260508014035 50 271 0.0 0.9 0.00 0.19 0.12 86 1012.5
20260508013536 50 0 0.0 0.0 0.00 0.19 0.12 89 1012.7
20260508013048 51 0 0.0 1.7 0.00 0.19 0.12 87 1012.5
20260508012533 52 0 0.0 1.7 0.00 0.19 0.12 87 1012.2
20260508012035 52 280 0.9 3.5 0.00 0.19 0.12 88 1012.1
20260508011551 53 0 0.0 3.5 0.00 0.19 0.12 84 1012.1
20260508011034 53 323 0.0 3.5 0.00 0.19 0.12 79 1012.1
20260508010534 54 0 0.0 4.3 0.00 0.19 0.12 81 1012.0
20260508010039 54 358 2.6 4.3 0.00 0.19 0.12 79 1012.0
20260508005537 54 290 0.9 3.5 0.00 0.19 0.12 80 1012.0
20260508005037 54 276 0.0 2.6 0.00 0.19 0.12 83 1012.0
20260508004552 55 293 0.9 4.3 0.00 0.19 0.12 79 1011.8
20260508004036 55 294 0.0 4.3 0.00 0.19 0.12 77 1011.8
20260508003533 55 23 2.6 4.3 0.00 0.19 0.12 77 1012.0
20260508003044 56 11 1.7 3.5 0.00 0.19 0.12 81 1011.9
20260508002533 55 293 0.9 2.6 0.00 0.19 0.12 79 1012.0
20260508002033 56 0 0.0 0.9 0.00 0.19 0.12 82 1012.0
20260508001548 56 0 0.0 0.9 0.00 0.19 0.12 82 1011.9
20260508001033 57 283 0.0 1.7 0.00 0.19 0.12 85 1012.0
20260508000533 57 0 0.9 2.6 0.00 0.19 0.12 84 1012.0
20260508000044 58 286 1.7 3.5 0.00 0.19 0.12 79 1012.0
20260507235533 58 293 1.7 3.5 0.00 0.19 0.12 83 1011.8
20260507235032 58 290 0.9 4.3 0.00 0.19 0.12 83 1011.8
20260507234547 58 288 0.9 4.3 0.00 0.19 0.12 83 1011.7
20260507234032 58 290 0.9 7.8 0.00 0.19 0.12 84 1011.7
20260507233535 58 356 0.9 7.8 0.00 0.19 0.12 88 1011.5
20260507233058 58 288 0.9 3.5 0.00 0.19 0.12 90 1011.4
20260507232534 58 255 0.0 3.5 0.00 0.19 0.12 90 1011.5
20260507232033 58 160 0.0 1.7 0.00 0.19 0.12 89 1011.5
20260507231544 58 0 0.0 1.7 0.00 0.19 0.12 89 1011.4
20260507231033 58 110 0.9 1.7 0.00 0.19 0.12 89 1011.3
20260507230532 59 141 0.9 1.7 0.00 0.19 0.12 89 1011.2
20260507230049 59 135 0.9 1.7 0.00 0.19 0.12 89 1011.1
20260507225533 58 142 0.9 1.7 0.00 0.19 0.12 89 1011.1
20260507225033 58 141 0.0 1.7 0.00 0.19 0.12 89 1011.0
20260507224553 58 0 0.0 0.0 0.00 0.19 0.12 89 1011.0
20260507224034 59 0 0.0 0.0 0.00 0.19 0.12 88 1010.9
20260507223536 59 0 0.0 0.0 0.00 0.19 0.12 88 1011.0
20260507223042 59 0 0.0 0.9 0.00 0.19 0.12 86 1010.8
20260507222535 59 0 0.0 2.6 0.00 0.19 0.12 86 1010.7
20260507222033 59 0 0.0 2.6 0.00 0.19 0.12 85 1010.7
20260507221548 59 0 0.9 3.5 0.00 0.19 0.12 85 1010.5
20260507221034 59 163 1.7 3.5 0.00 0.19 0.12 85 1010.4
20260507220534 59 165 1.7 3.5 0.00 0.19 0.12 86 1010.5
20260507220046 59 87 2.6 3.5 0.00 0.19 0.12 85 1010.5
20260507215536 59 64 0.0 2.6 0.00 0.19 0.12 85 1010.6
20260507215034 60 130 0.9 7.0 0.00 0.19 0.12 84 1010.7
20260507214544 60 93 2.6 7.0 0.00 0.19 0.12 82 1010.6
20260507214033 60 110 2.6 7.0 0.00 0.19 0.12 82 1010.5
20260507213536 60 120 2.6 7.0 0.00 0.19 0.12 82 1010.4
20260507213053 60 120 3.5 7.0 0.00 0.19 0.12 80 1010.4
20260507212533 60 154 2.6 5.2 0.00 0.19 0.12 83 1010.3
20260507212033 60 134 2.6 5.2 0.00 0.19 0.12 84 1010.2
20260507211539 61 90 1.7 6.1 0.00 0.19 0.12 82 1010.3
20260507211035 60 80 3.5 6.1 0.00 0.19 0.12 84 1010.1
20260507210535 60 104 3.5 6.1 0.00 0.19 0.12 86 1010.0
20260507210049 59 82 2.6 5.2 0.00 0.19 0.12 87 1010.2
20260507205534 59 130 2.6 7.8 0.00 0.19 0.12 90 1010.1
20260507205033 59 91 3.5 7.8 0.00 0.19 0.12 87 1010.0
20260507204547 58 108 3.5 7.8 0.00 0.19 0.12 89 1010.2
20260507204035 58 160 4.3 7.0 0.00 0.19 0.12 89 1010.2
20260507203534 58 113 3.5 6.1 0.00 0.19 0.12 89 1010.2
20260507203047 57 141 2.6 5.2 0.00 0.19 0.12 90 1010.4
20260507202533 57 124 2.6 6.1 0.00 0.19 0.12 90 1010.2
20260507202033 57 108 3.5 6.1 0.00 0.19 0.12 90 1010.3
20260507201545 56 153 2.6 4.3 0.02 0.19 0.12 89 1010.2
20260507201034 56 120 1.7 3.5 0.02 0.19 0.12 90 1010.3
20260507200533 56 120 1.7 4.3 0.02 0.19 0.12 89 1010.4
20260507200048 56 113 0.9 4.3 0.02 0.19 0.12 89 1010.5
20260507195534 56 77 0.9 4.3 0.02 0.19 0.12 89 1010.6
20260507195034 56 0 0.0 7.0 0.02 0.19 0.12 89 1010.8
20260507194615 56 78 0.0 7.0 0.02 0.19 0.12 89 1010.9
20260507194033 56 75 1.7 7.0 0.02 0.19 0.12 88 1010.9
20260507193534 56 69 0.9 4.3 0.02 0.19 0.12 89 1010.9
20260507193048 56 24 1.7 4.3 0.02 0.19 0.12 89 1010.9
20260507192537 56 0 2.6 8.7 0.02 0.19 0.12 88 1010.8
20260507192033 56 4 4.3 8.7 0.02 0.19 0.12 86 1010.6
20260507191549 56 34 5.2 8.7 0.00 0.17 0.10 85 1011.4
20260507191033 57 41 3.5 7.0 0.00 0.17 0.10 85 1011.0
20260507190533 57 57 3.5 7.0 0.00 0.17 0.10 85 1010.9
20260507190052 57 65 3.5 6.1 0.00 0.17 0.10 84 1011.0
20260507185534 57 41 2.6 6.1 0.00 0.17 0.10 85 1011.3
20260507185034 58 25 2.6 6.1 0.00 0.17 0.10 85 1011.0
20260507184544 58 42 0.9 7.8 0.00 0.17 0.10 87 1011.1
20260507184035 58 112 2.6 7.8 0.00 0.17 0.10 88 1011.2
20260507183534 58 74 3.5 7.0 0.00 0.17 0.10 87 1010.8
20260507183047 58 77 1.7 6.1 0.00 0.17 0.10 90 1011.1
20260507182534 58 80 2.6 4.3 0.00 0.17 0.10 90 1011.1
20260507182034 58 89 0.9 3.5 0.00 0.17 0.10 90 1011.1
20260507181551 58 85 1.7 7.0 0.00 0.17 0.10 89 1011.3
20260507181038 58 70 1.7 7.0 0.00 0.17 0.10 89 1011.0
20260507180533 58 114 3.5 7.0 0.00 0.17 0.10 89 1010.9
20260507180043 58 122 2.6 6.1 0.00 0.17 0.10 90 1010.8
20260507175534 58 117 3.5 6.1 0.00 0.18 0.10 90 1010.8
20260507175034 58 88 3.5 6.1 0.00 0.18 0.10 90 1010.8
20260507174555 58 116 2.6 5.2 0.00 0.18 0.10 90 1010.8
20260507174034 58 68 0.9 7.8 0.00 0.18 0.10 89 1011.0
20260507173533 58 223 3.5 7.8 0.01 0.18 0.10 88 1010.9
20260507173113 58 77 2.6 7.8 0.01 0.18 0.10 89 1010.8
20260507172533 58 69 3.5 6.1 0.04 0.18 0.10 88 1010.9
20260507172034 58 116 2.6 6.1 0.05 0.18 0.10 89 1011.0
20260507171601 59 78 2.6 7.0 0.06 0.18 0.10 89 1010.9
20260507171033 59 134 1.7 7.0 0.07 0.18 0.10 91 1010.8
20260507170533 59 76 1.7 6.1 0.08 0.18 0.10 90 1010.9
20260507170100 59 30 2.6 8.7 0.08 0.18 0.10 91 1010.7
20260507165533 59 71 2.6 8.7 0.08 0.19 0.10 92 1010.5
20260507165036 59 114 3.5 7.0 0.08 0.19 0.10 92 1010.6
20260507164549 59 90 2.6 7.0 0.08 0.19 0.10 92 1010.6
20260507164033 59 117 2.6 6.1 0.07 0.18 0.09 93 1010.4
20260507163537 58 151 0.9 6.1 0.07 0.18 0.09 93 1010.5
20260507163048 58 26 0.0 6.1 0.06 0.17 0.08 92 1010.8
20260507162533 58 78 2.6 6.1 0.04 0.15 0.06 91 1011.0
20260507162037 59 62 2.6 7.0 0.03 0.14 0.05 91 1010.9
20260507161600 59 51 2.6 7.0 0.02 0.13 0.04 91 1011.0
20260507161033 59 345 1.7 7.8 0.00 0.11 0.02 91 1011.0
20260507160533 60 77 2.6 7.8 0.00 0.11 0.02 90 1010.9
20260507160045 60 34 2.6 6.1 0.00 0.11 0.02 90 1010.8
20260507155533 60 121 3.5 6.1 0.00 0.13 0.02 89 1010.7
20260507155033 60 86 3.5 6.1 0.00 0.13 0.02 89 1010.6
20260507154545 61 86 2.6 6.1 0.00 0.13 0.02 90 1010.7
20260507154033 61 95 2.6 7.0 0.00 0.13 0.02 91 1010.7
20260507153533 61 112 3.5 7.0 0.00 0.13 0.02 90 1010.7
20260507153045 61 207 2.6 6.1 0.00 0.13 0.02 91 1010.8
20260507152537 60 84 2.6 5.2 0.00 0.13 0.02 91 1010.8
20260507152033 60 206 1.7 4.3 0.00 0.13 0.02 91 1010.8
20260507151548 60 129 2.6 4.3 0.00 0.13 0.02 91 1010.7
20260507151032 60 103 1.7 4.3 0.00 0.13 0.02 92 1010.7
20260507150533 60 82 1.7 4.3 0.00 0.13 0.02 91 1010.8
20260507150052 60 105 1.7 4.3 0.00 0.13 0.02 91 1010.8
20260507145533 60 98 2.6 4.3 0.00 0.13 0.02 92 1010.8
20260507145032 60 119 0.0 5.2 0.00 0.13 0.02 92 1011.0
20260507144548 60 114 0.0 5.2 0.00 0.13 0.02 91 1010.9
20260507144032 60 49 0.0 5.2 0.00 0.13 0.02 92 1010.6
20260507143533 60 103 0.0 5.2 0.00 0.13 0.02 92 1010.6
20260507143049 60 0 1.7 5.2 0.00 0.13 0.02 92 1010.5
20260507142533 60 60 1.7 6.1 0.00 0.13 0.02 92 1010.6
20260507142032 60 0 1.7 6.1 0.00 0.13 0.02 94 1010.5
20260507141604 60 25 2.6 5.2 0.00 0.13 0.02 94 1010.5
20260507141037 60 0 0.9 5.2 0.00 0.13 0.02 95 1010.4
20260507140532 60 80 1.7 5.2 0.00 0.13 0.02 94 1010.3
20260507140044 60 39 0.9 4.3 0.00 0.13 0.02 94 1010.4
20260507135533 60 0 0.9 3.5 0.00 0.14 0.02 94 1010.3
20260507135034 60 39 1.7 3.5 0.00 0.14 0.02 94 1010.6
20260507134549 60 286 0.9 2.6 0.00 0.14 0.02 95 1010.7
20260507134033 60 0 0.9 2.6 0.00 0.14 0.02 95 1010.2
20260507133535 60 100 0.9 2.6 0.00 0.14 0.02 95 1010.4
20260507133042 60 0 0.9 2.6 0.00 0.14 0.02 95 1010.6
20260507132534 60 0 0.0 2.6 0.00 0.14 0.02 95 1010.9
20260507132033 60 157 0.0 3.5 0.00 0.14 0.02 95 1010.7
20260507131545 60 109 2.6 3.5 0.00 0.14 0.02 95 1010.7
20260507131034 60 113 0.9 2.6 0.00 0.14 0.02 95 1011.1
20260507130535 60 0 0.0 0.9 0.00 0.14 0.02 95 1011.3
20260507130045 60 0 0.0 2.6 0.00 0.14 0.02 96 1011.4
20260507125535 60 0 0.0 3.5 0.00 0.14 0.02 96 1011.2
20260507125033 60 162 1.7 4.3 0.00 0.14 0.02 96 1011.3
20260507124547 61 120 1.7 4.3 0.00 0.14 0.02 96 1011.1
20260507124033 61 152 1.7 3.5 0.00 0.14 0.02 96 1011.1
20260507123533 61 0 0.0 3.5 0.00 0.14 0.02 96 1011.5
20260507123045 61 0 0.0 3.5 0.00 0.14 0.02 96 1011.4
20260507122534 61 122 1.7 2.6 0.00 0.14 0.02 96 1011.3
20260507122033 61 121 0.0 2.6 0.00 0.14 0.02 96 1011.4
20260507121550 61 0 0.0 2.6 0.00 0.14 0.02 96 1011.6
20260507121033 61 105 0.0 2.6 0.00 0.14 0.02 97 1011.2
20260507120532 61 0 0.0 2.6 0.00 0.14 0.02 97 1011.1
20260507120045 61 125 0.0 5.2 0.00 0.14 0.02 97 1011.2
20260507115533 61 131 0.9 5.2 0.00 0.14 0.02 97 1010.7
20260507115033 61 150 2.6 4.3 0.00 0.14 0.02 97 1010.6
20260507114542 61 140 1.7 4.3 0.00 0.14 0.02 97 1010.8
20260507114033 61 126 2.6 4.3 0.00 0.14 0.02 97 1011.0
20260507113537 61 131 1.7 2.6 0.00 0.14 0.02 97 1010.7
20260507113050 61 0 0.0 2.6 0.00 0.14 0.02 97 1010.8
20260507112533 61 0 0.0 3.5 0.00 0.14 0.02 97 1010.9
20260507112032 61 158 0.9 3.5 0.00 0.14 0.02 97 1010.9
20260507111547 61 122 1.7 4.3 0.00 0.14 0.02 97 1010.7
20260507111033 62 136 1.7 6.1 0.00 0.14 0.02 97 1010.8
20260507110533 62 139 1.7 6.1 0.00 0.14 0.02 97 1010.6
20260507110046 62 141 1.7 4.3 0.00 0.14 0.02 98 1010.5
20260507105532 62 146 0.9 3.5 0.00 0.14 0.02 98 1010.4
20260507105033 62 116 0.0 4.3 0.00 0.14 0.02 98 1010.5
20260507104547 62 0 1.7 4.3 0.00 0.14 0.02 98 1010.6
20260507104033 62 162 0.9 3.5 0.00 0.14 0.02 98 1010.1
20260507103532 62 0 0.0 0.0 0.01 0.14 0.02 98 1010.8
20260507103042 62 0 0.0 0.0 0.01 0.14 0.02 98 1010.8
20260507102534 62 0 0.0 0.0 0.01 0.14 0.02 98 1010.7